www.pogodaiklimat.ru

Погода и климат >> Архив погоды >> Россия >> Ненецкий АО >> Имени Федорова


ПОГОДА в Имени Федорова

  • Прогноз погоды в Имени Федорова
  • Монитор погоды в Имени Федорова

АРХИВ ПОГОДЫ в Имени Федорова

Время (UTC), дата Ветер
(напр.,м/с)
 
Видим.   Явления Облачность Т
(С)
Тd
(С)
f
(%)
Тe
(С)
Тes
(С)
Комфортность P
(гПа)
Po
(гПа)
Тmin
(С)
Tmax
(С)
R
(мм)
R24
(мм)
S
(см)
09 16.07 В 10-11
{11}
10 км {туман} 10/0
[Ac und]
+4.1 +4.1 100 -3 -3 1018.4 1017.1
12 16.07 В 11-14
{14}
10 км {туман} 10/0
[Ac und]
+4.9 +4.8 99 -2 -2 1016.5 1015.2
15 16.07 В 12-14
{16}
10 км 6/3 600 м
[Sc Ac trans]
+5.1 +4.1 93 -2 -2 1014.8 1013.5 +5.4
18 16.07 В 12-15
{15}
10 км 10/0
[Ac und]
+5.8 +5.0 95 -1 -1 1012.4 1011.1
21 16.07 ЮВ 13-16
{17}
10 км 10/0
[Ac und]
+5.8 +5.4 97 -1 -1 1011.2 1009.9
00 17.07 ЮВ 12-14
{17}
10 км 10/0
[Ac und]
+5.2 +5.0 99 -2 -2 1010.8 1009.5
03 17.07 ЮВ 11-13
{15}
500 м туман ?/? +4.1 +4.1 100 -3 -3 1009.8 1008.4 +4.1
06 17.07 ЮВ 7
{13}
200 м туман ?/? +4.4 +4.4 100 -2 -2 1010.8 1009.5 +3.7
09 17.07 ЮВ 5 1000 м дымка {туман} 6/0
[Ac trans]
+4.6 +4.6 100 -1 +3 1011.8 1010.5
12 17.07 З 8-11
{11}
4000 м дымка {туман} 10/0
[Ac und]
+5.8 +5.8 100 -0 0 1013.4 1012.0
15 17.07 СЗ 8-11
{11}
500 м туман ?/? +5.4 +5.4 100 -1 -1 1013.7 1012.4 +6.0
18 17.07 СЗ 8-11
{11}
4000 м слаб. ливневой дождь {туман} 10/10 300 м
[Cb cap]
+3.8 +3.8 100 -3 -3 1016.1 1014.7
21 17.07 СЗ 6
{12}
10 км {ливн. осадки} 10/10 600 м
[Sc]
+3.6 +3.6 100 -2 -2 1016.4 1015.1
00 18.07 С 5
{11}
10 км {ливн. осадки} 9/3 300 м
[Sc Ac trans]
+3.4 +3.4 100 -2 -2 1017.7 1016.4
03 18.07 С 6 10 км 10/0
[As trans]
+4.4 +4.4 100 -1 -1 1018.2 1016.9 +3.2 0.4
06 18.07 С 5 10 км 10/0
[Ac trans Ci fib]
+5.0 +4.5 97 0 +2 1018.3 1016.9
09 18.07 С 4 10 км 8/0
[Ac trans]
+5.2 +4.7 97 +1 +4 1019.5 1018.2
12 18.07 С 4 4000 м слаб. дождь 10/0 300 м
[As op]
+4.4 +4.1 98 -0 +1 1019.8 1018.5
15 18.07 С 6 4000 м слаб. дождь 10/0 300 м
[As op]
+4.0 +3.9 99 -2 -2 1018.7 1017.3 +5.2 0.9
18 18.07 СВ 6 10 км {дождь} 9/0
[Ac trans]
+4.3 +4.3 100 -1 -1 1018.7 1017.4
21 18.07 СВ 8
{10}
4000 м слаб. дождь 10/0 300 м
[As op]
+4.1 +4.1 100 -2 -2 1018.3 1017.0
00 19.07 СВ 9-10
{11}
10 км {дождь} 10/0
[As trans]
+4.0 +4.0 100 -3 -3 1018.1 1016.8
03 19.07 СВ 11-13
{13}
4000 м слаб. дождь 10/0 300 м
[As op]
+4.3 +4.3 100 -3 -3 1016.5 1015.2 +3.8 1
06 19.07 СВ 7
{13}
4000 м дымка {дождь} 10/10 300 м
[St]
+4.2 +4.2 100 -2 -2 1016.2 1014.9
09 19.07 СВ 10-11
{11}
4000 м дымка 10/10 300 м
[St]
+4.6 +4.6 100 -2 -2 1014.7 1013.4
12 19.07 СВ 10-11
{11}
4000 м дымка 10/10 300 м
[St]
+4.6 +4.6 100 -2 -2 1013.6 1012.3
15 19.07 В 5
{11}
4000 м дымка 10/10 300 м
[St]
+4.4 +4.4 100 -1 -1 1012.1 1010.8 +4.7 0.0
18 19.07 В 3 2000 м слаб. дождь 10/0 300 м
[As op]
+4.8 +4.8 100 +1 +1 1010.5 1009.2
21 19.07 В 5 500 м туман {дождь} ?/? +4.1 +4.1 100 -1 -1 1008.8 1007.4
00 20.07 В 3 4000 м дымка {дождь, туман} 10/0
[As trans]
+4.2 +4.2 100 0 0 1007.7 1006.4
03 20.07 СВ 3 200 м туман ?/? +4.1 +4.1 100 0 0 1005.9 1004.6 +3.9
06 20.07 штиль 0 50 м туман ?/? +5.9 +5.9 100 +5 +5 1005.2 1003.9
09 20.07 ЮЗ 11-14
{14}
4000 м слаб. дождь {туман} 10/0 300 м
[As op]
+7.2 +7.2 100 +1 +1 1005.5 1004.2
12 20.07 З 10-12
{14}
10 км {дождь, туман} 10/0
[Ac und]
+7.4 +7.4 100 +2 +2 1007.2 1005.9
15 20.07 ЮЗ 6 10 км 10/10 600 м
[Sc]
+7.3 +5.9 91 +3 +3 1007.7 1006.4 +7.7 0.5
18 20.07 ЮЗ 6
{11}
500 м туман ?/? +5.8 +5.0 95 +1 +1 1008.1 1006.8
21 20.07 З 6 4000 м дымка {туман} 10/10 300 м
[St]
+4.3 +3.6 95 -1 -1 1009.1 1007.8
00 21.07 З 5 4000 м дымка {туман} 10/10 300 м
[St]
+3.0 +2.4 96 -3 -3 1010.2 1008.9
03 21.07 ЮЗ 5 10 км 10/0
[Ac und]
+4.5 +3.5 93 -1 0 1011.2 1009.9 +2.8
06 21.07 ЮЗ 11-11
{11}
10 км 1/0
[Ac und]
+6.3 +4.1 86 0 0 1011.7 1010.3
09 21.07 З 10-13
{14}
500 м туман ?/? +4.3 +3.6 95 -3 -3 1012.5 1011.2
12 21.07 ЮЗ 10-13
{14}
1000 м дымка {туман} 9/0
[As trans]
+5.5 +4.6 94 -1 -1 1013.3 1012.0
15 21.07 З 10-12
{14}
500 м туман ?/? +3.6 +3.0 96 -4 -4 1014.1 1012.8 +6.7
18 21.07 ЮЗ 7
{11}
10 км {туман} ясно +4.6 +4.0 96 -1 -1 1015.5 1014.2
21 21.07 З 4 10 км ясно +3.3 +2.8 97 -2 -2 1016.6 1015.3
00 22.07 З 2 10 км 3/0
[Ci fib]
+3.8 +3.1 95 +1 +1 1017.7 1016.2
03 22.07 СЗ 3 10 км ясно +5.4 +4.2 92 +2 +5 1019.0 1017.7 +3.1
06 22.07 С 3 20 км ясно +6.9 +5.1 88 +4 +10 1020.2 1018.9
09 22.07 С 4 20 км ясно +6.6 +4.9 89 +3 +9 1021.0 1019.7
12 22.07 СВ 3 20 км 3/0
[Ci fib]
+6.5 +4.8 89 +3 +7 1022.1 1020.8
15 22.07 СВ 4 20 км 3/0
[Ci fib]
+5.7 +4.2 90 +2 +2 1022.2 1020.9 +7.1
18 22.07 В 4 500 м туман ?/? +3.7 +3.0 95 -1 -1 1022.8 1021.4
21 22.07 В 2 500 м туман ?/? +3.2 +2.7 97 0 0 1022.8 1021.5
00 23.07 СВ 4 10 км {туман} 3/0
[Ci fib]
+4.9 +4.3 96 +1 +1 1023.0 1021.6
03 23.07 В 3 10 км 8/0
[Ci fib]
+5.8 +4.9 94 +2 +4 1022.9 1021.6 +3.0
06 23.07 СВ 4 20 км 1/0
[Ac trans]
+5.9 +4.6 91 +2 +7 1022.8 1021.4

 

Местоположение метеостанции Имени Федорова (Ненецкий АО, Россия): широта 70.45 долгота 59.08 высота над уровнем моря 12 м.

В архиве по умолчанию представлена погода в Имени Федорова за последнюю неделю. Архивные данные за месяц целиком и за предыдущие месяцы, начиная с января 2011 года, Вы можете получить, выбрав интересующий диапазон дат из раскрывающегося списка и нажав кнопку "Ввод!".


*Определитесь, кто Вы:
робот инопланетянин человек

Внимание! Время в таблицах - всемирное. Для получения местного времени необходимо прибавить поправку, которая равна 3 ч.

Смотрите также архив погоды в соседних городах и на ближайших метеорологических станциях:

Погода на Мысе Белый Нос (Ненецкий АО, Россия) (104 км)
Погода в Амдерме (Ненецкий АО, Россия) (124 км)
Погода в Варандее (Ненецкий АО, Россия) (186 км)
Погода на Мысе Константиновском (Ненецкий АО, Россия) (253 км)
Погода в Усть-Каре (Ненецкий АО, Россия) (261 км)
Погода в Ходоварихе (Ненецкий АО, Россия) (266 км)
Погода в Марресале (Ямало-Ненецкий АО, Россия) (304 км)
Погода в Малых Кармакулах (Архангельская область, Россия) (310 км)
Погода в Хорей-Вере (Ненецкий АО, Россия) (339 км)
Погода в Сенгейском Шаре (Ненецкий АО, Россия) (376 км)

Пояснения к столбцам:

Ветер - указаны скорость ветра в м/с - средняя за 10 мин, порывы в срок и между сроками (в фигурных скобках) и направление, откуда дует ветер: С - северный, СВ - северо-восточный, В - восточный, ЮВ - юго-восточный, Ю - южный, ЮЗ - юго-западный, З - западный, СЗ - северо-западный.
Видимость - горизонтальная дальность видимости в метрах или километрах. При видимости от 1 до 10 км при отсутствии осадков обычно наблюдается дымка, при ухудшении видимости до 1 км и менее - туман. В сухую погоду видимость может ухудшаться дымом, пылью или мглою.
Явления - указаны атмосферные явления, наблюдавшиеся в срок или в последний час перед сроком; фигурными скобками обозначены явления, наблюдавшиеся между сроками (за 1-3 часа до срока); квадратными скобками обозначены град или гололедные отложения с указанием их диаметра в мм.
Облачность - указаны через наклонную черту общая и нижняя облачность в баллах и высота нижней границы облаков в метрах; квадратными скобками обозначены формы облаков: Ci - перистые, Cs - перисто-слоистые, Cc - перисто-кучевые, Ac - высококучевые, As - высокослоистые, Sc - слоисто-кучевые, Ns - слоисто-дождевые, Cu - кучевые, Cb - кучево-дождевые. Подробнее классификацию облаков см. в Атласе облаков (PDF).
T - Температура воздуха - температура, измеренная на высоте 2 м над землей.
Td - Температура точки росы - температура, при понижении до которой содержащийся в воздухе водяной пар достигнет насыщения.
f - Относительная влажность воздуха - влажноcть воздуха, измеренная на высоте 2 м над землей.
Te - Эффективная температура - температура, которую ощущает одетый по сезону человек в тени. Характеристика душности погоды. При расчете учитывается влияние влажности воздуха и скорости ветра на теплоощущения человека.
Tes - Эффективная температура на солнце - температура, которую ощущает человек, с поправкой на солнечный нагрев. Характеристика знойности погоды. Зависит от высоты солнца над горизонтом, облачности и скорости ветра. Ночью, в пасмурную погоду, а также при ветре 12 м/с и более поправка равна нулю.
P - Атмосферное давление - приведенное к уровню моря атмосферное давление.
Po - Атмосферное давление - измеренное на уровне метеостанции атмосферное давление.
Tmin - Минимальная температура - минимум температуры воздуха на высоте 2 м над землей.
Tmax - Максимальная температура - максимум температуры воздуха на высоте 2 м над землей.
R - Количество осадков - Количество выпавших осадков за период времени, мм. При наведении курсора мыши на число - период времени, за который выпало указанное количество осадков.
R24 - Количество осадков - Количество выпавших осадков за 24 часа, мм.
S - Снежный покров - Высота снежного покрова, см. При наведении курсора мыши на число - состояние снежного покрова и степень покрытия местности в баллах.